Starlink 32428

operational
NORAD ID: 61666 Int'l Des: 2024-193 Owner: SPXS Country: US Constellation: starlink
LEOCIRCULAR

Über Starlink 32428

Beschreibung wird geladen...

Live-Position

3D-Globus wird geladen...

Nächste Überflüge

Höhenverlauf

Altitude vs Time

uPlot chart will show altitude changes over time

Zweizeiliger Elementsatz

1 61666U 24193F 25354.49452192 .00001527 00000-0 63703-4 0 9997
2 61666 53.1602 98.7104 0001634 94.6909 265.4278 15.30181996 64405
Epoch: 20. Dez. 2025 • Age: 10 hours

Aktueller Status

Höhe 476.3 km
Geschwindigkeit 7.63 km/s
Subsatellitenpunkt 30.56°N, 167.35°W
Startdatum 26. Okt. 2024
Alter 1.1 years
Typ internet

Technische Details

Klassifizierung Payload
Masse 730.00 kg
Trockenmasse 700.00 kg
Gesamtmasse 730.00 kg
Länge 0.30 m
Durchmesser 4.10 m
Spannweite 29.00 m
Form Box + pan
Hersteller SPXS
Bus-Typ Starlink V2M
Phasenstatus In Orbit
Besitzer/Staat SPXS/US

Große Konstellationen

Loading constellations...